Date String (YYYY-MM-DD hh:mm:ss) UTC,Instrument flags,Ambient pressure (hPa),Sample flow (lpm),Bypass flow (lpm),Sample temperature (°C),Ambient temperature (°C),ASC tube jacket temperature (°C),LED temperature (°C),Box temperature (°C),Sample RH (%),Span deviation,Mass concentration (μg/m³),Mass concentration (μg/m³),Mass concentration (μg/m³)
DateTimeUTC,F1_M11,P_M11,Q1_M11,Q2_M11,T1_M11,T2_M11,T3_M11,T4_M11,T5_M11,U1_M11,ZSPAN_M11,X0_M11,X2_M11,X1_M11
2022-06-14 17:00:00,,0821.2,5.00,0.00,29.9,29.0,00.0,38.9,31.7,19.3,0000.0,0024.96,0008.00,0003.12
2022-06-14 17:01:00,,0821.3,5.00,0.00,29.9,29.0,00.0,38.9,31.8,19.3,0000.0,0023.68,0007.88,0003.12
2022-06-14 17:02:00,,0821.4,5.00,0.00,29.9,29.0,00.0,38.9,31.8,19.4,0000.0,0022.53,0007.72,0003.09
2022-06-14 17:03:00,,0821.3,5.00,0.00,29.9,29.0,00.0,38.9,31.8,19.5,0000.0,0021.96,0007.67,0003.09
2022-06-14 17:04:00,,0821.2,5.00,0.00,29.9,29.0,00.0,38.9,31.7,19.4,0000.0,0022.11,0007.69,0003.08
2022-06-14 17:05:00,,0821.1,5.00,0.00,29.9,28.3,00.0,38.8,31.6,19.3,0000.0,0022.05,0007.65,0003.05
2022-06-14 17:06:00,,0821.1,5.01,0.00,29.8,27.5,00.0,38.7,31.3,19.3,0000.0,0022.82,0007.74,0003.03
2022-06-14 17:07:00,,0821.1,4.99,0.00,29.7,27.3,00.0,38.7,31.3,19.3,0000.0,0022.88,0007.72,0003.01
2022-06-14 17:08:00,,0821.0,5.01,0.00,29.7,27.3,00.0,38.6,31.3,19.5,0000.0,0022.42,0007.66,0002.99
2022-06-14 17:09:00,,0821.1,5.00,0.00,29.6,27.4,00.0,38.6,31.2,19.5,0000.0,0022.36,0007.69,0003.02
2022-06-14 17:10:00,,0821.1,4.99,0.00,29.6,27.5,00.0,38.6,31.2,19.6,0000.0,0022.14,0007.71,0003.01
2022-06-14 17:11:00,,0821.1,5.01,0.00,29.5,27.6,00.0,38.6,31.3,19.6,0000.0,0022.11,0007.70,0003.00
2022-06-14 17:12:00,,0821.1,5.00,0.00,29.5,27.7,00.0,38.5,31.3,19.5,0000.0,0022.27,0007.73,0003.00
2022-06-14 17:13:00,,0821.1,5.00,0.00,29.5,27.8,00.0,38.5,31.3,19.5,0000.0,0022.07,0007.71,0002.98
2022-06-14 17:14:00,,0821.0,4.99,0.00,29.5,28.0,00.0,38.5,31.3,19.6,0000.0,0021.97,0007.67,0002.99
2022-06-14 17:15:00,,0821.0,5.02,0.00,29.5,28.1,00.0,38.5,31.3,19.7,0000.0,0021.85,0007.52,0002.98
2022-06-14 17:16:00,,0821.1,4.99,0.00,29.5,28.1,00.0,38.5,31.3,19.7,0000.0,0021.56,0007.39,0002.96
2022-06-14 17:17:00,,0821.0,4.99,0.00,29.5,28.2,00.0,38.5,31.3,19.8,0000.0,0020.90,0007.26,0002.94
2022-06-14 17:18:00,,0821.0,4.99,0.00,29.5,28.3,00.0,38.5,31.3,20.0,0000.0,0020.57,0007.21,0002.92
2022-06-14 17:19:00,,0821.0,4.99,0.00,29.5,28.3,00.0,38.5,31.4,20.0,0000.0,0020.21,0007.12,0002.93
2022-06-14 17:20:00,,0821.0,5.01,0.00,29.5,28.4,00.0,38.5,31.4,20.1,0000.0,0020.20,0007.03,0002.95
2022-06-14 17:21:00,,0821.2,5.01,0.00,29.5,28.5,00.0,38.5,31.4,20.1,0000.0,0019.92,0007.01,0002.97
2022-06-14 17:22:00,,0821.2,5.00,0.00,29.5,28.5,00.0,38.5,31.4,20.0,0000.0,0019.76,0007.03,0002.99
2022-06-14 17:23:00,,0821.1,4.99,0.00,29.5,28.5,00.0,38.5,31.4,20.0,0000.0,0020.28,0006.99,0003.01
2022-06-14 17:24:00,,0821.1,5.01,0.00,29.6,28.6,00.0,38.5,31.4,20.0,0000.0,0020.60,0007.05,0003.05
2022-06-14 17:25:00,,0821.0,4.99,0.00,29.6,28.6,00.0,38.5,31.4,19.9,0000.0,0020.55,0007.08,0003.06
2022-06-14 17:26:00,,0821.0,5.00,0.00,29.6,28.6,00.0,38.5,31.5,19.9,0000.0,0020.54,0007.15,0003.11
2022-06-14 17:27:00,,0821.0,5.00,0.00,29.6,28.7,00.0,38.5,31.5,20.0,0000.0,0020.73,0007.26,0003.13
2022-06-14 17:28:00,,0821.0,5.01,0.00,29.6,28.7,00.0,38.5,31.5,19.9,0000.0,0021.03,0007.33,0003.14
2022-06-14 17:29:00,,0821.0,5.01,0.00,29.6,28.7,00.0,38.5,31.5,19.7,0000.0,0020.83,0007.34,0003.16
2022-06-14 17:30:00,,0821.0,5.00,0.00,29.6,28.8,00.0,38.5,31.5,19.5,0000.0,0020.50,0007.37,0003.18
2022-06-14 17:31:00,,0821.0,5.00,0.00,29.7,28.8,00.0,38.5,31.5,19.4,0000.0,0020.29,0007.42,0003.18
2022-06-14 17:32:00,,0820.9,4.99,0.00,29.7,28.8,00.0,38.5,31.5,19.4,0000.0,0020.06,0007.38,0003.19
2022-06-14 17:33:00,,0820.9,5.00,0.00,29.7,28.8,00.0,38.6,31.6,19.4,0000.0,0020.16,0007.37,0003.21
2022-06-14 17:34:00,,0821.1,5.00,0.00,29.7,28.8,00.0,38.6,31.6,19.4,0000.0,0020.66,0007.36,0003.21
2022-06-14 17:35:00,,0821.0,5.00,0.00,29.7,28.8,00.0,38.6,31.6,19.5,0000.0,0020.18,0007.37,0003.23
2022-06-14 17:36:00,,0821.0,4.99,0.00,29.7,28.9,00.0,38.6,31.6,19.6,0000.0,0020.41,0007.32,0003.23
2022-06-14 17:37:00,,0821.0,5.00,0.00,29.7,28.9,00.0,38.6,31.6,19.7,0000.0,0020.50,0007.37,0003.24
2022-06-14 17:38:00,,0821.1,5.00,0.00,29.7,28.9,00.0,38.6,31.6,19.7,0000.0,0020.64,0007.31,0003.25
2022-06-14 17:39:00,,0821.1,5.01,0.00,29.7,28.9,00.0,38.6,31.7,19.7,0000.0,0020.79,0007.25,0003.26
2022-06-14 17:40:00,,0821.0,5.00,0.00,29.8,28.9,00.0,38.6,31.7,19.5,0000.0,0021.95,0007.15,0003.27
2022-06-14 17:41:00,,0821.0,4.99,0.00,29.8,29.0,00.0,38.6,31.7,19.5,0000.0,0022.03,0007.11,0003.27
2022-06-14 17:42:00,,0821.1,5.00,0.00,29.8,29.0,00.0,38.6,31.7,19.5,0000.0,0021.90,0007.12,0003.27
2022-06-14 17:43:00,,0821.1,5.01,0.00,29.8,29.0,00.0,38.7,31.7,19.5,0000.0,0022.00,0007.13,0003.27
2022-06-14 17:44:00,,0821.2,5.01,0.00,29.8,29.0,00.0,38.7,31.7,19.5,0000.0,0021.82,0007.08,0003.27
2022-06-14 17:45:00,,0821.2,5.00,0.00,29.8,29.0,00.0,38.7,31.8,19.6,0000.0,0021.24,0007.05,0003.27
2022-06-14 17:46:00,,0821.2,4.99,0.00,29.8,29.1,00.0,38.7,31.8,19.7,0000.0,0021.82,0007.11,0003.28
2022-06-14 17:47:00,,0821.2,5.00,0.00,29.9,28.9,00.0,38.7,31.7,19.8,0000.0,0022.13,0007.18,0003.30
2022-06-14 17:48:00,,0821.2,5.02,0.00,29.8,28.2,00.0,38.6,31.5,19.8,0000.0,0021.69,0007.11,0003.31
2022-06-14 17:49:00,,0821.3,4.99,0.00,29.8,27.9,00.0,38.6,31.4,19.9,0000.0,0021.36,0007.13,0003.32
2022-06-14 17:50:00,,0821.3,5.01,0.00,29.7,27.8,00.0,38.6,31.4,20.0,0000.0,0021.17,0007.12,0003.33
2022-06-14 17:51:00,,0821.2,5.00,0.00,29.7,27.9,00.0,38.6,31.4,20.0,0000.0,0020.08,0007.19,0003.34
2022-06-14 17:52:00,,0821.2,5.00,0.00,29.7,28.0,00.0,38.6,31.4,20.0,0000.0,0020.65,0007.26,0003.36
2022-06-14 17:53:00,,0821.2,5.00,0.00,29.7,28.1,00.0,38.6,31.4,19.8,0000.0,0020.47,0007.25,0003.38
2022-06-14 17:54:00,,0821.2,5.00,0.00,29.7,28.2,00.0,38.6,31.5,19.9,0000.0,0020.36,0007.27,0003.39
2022-06-14 17:55:00,,0821.2,5.00,0.00,29.7,28.3,00.0,38.6,31.5,19.9,0000.0,0022.05,0007.37,0003.41
2022-06-14 17:56:00,,0821.1,5.00,0.00,29.7,28.4,00.0,38.6,31.5,20.0,0000.0,0024.58,0007.52,0003.44
2022-06-14 17:57:00,,0821.1,5.00,0.00,29.7,28.5,00.0,38.6,31.5,20.1,0000.0,0024.91,0007.56,0003.47
2022-06-14 17:58:00,,0821.1,5.01,0.00,29.7,28.6,00.0,38.6,31.6,20.1,0000.0,0025.05,0007.48,0003.47
2022-06-14 17:59:00,,0821.1,4.99,0.00,29.7,28.6,00.0,38.6,31.6,20.0,0000.0,0026.01,0007.56,0003.48
